QPF
0.00 0.01 0.01 0.00 0.00 0.00 0.01 0.01 0.01 0.01 0.01 0.00 0.00 0.00 0.00 0.00 0.00 0.00 0.00 0.01 0.01 0.01 0.01 0.02 0.02 0.02 0.03 0.03 0.03 0.03 0.03 0.04 0.05 0.06 0.07 0.09 0.08 0.05 0.04 0.03 0.05 0.06 0.06 0.07
0.00 0.00 0.00 0.00 0.00 0.00 0.01 0.01 0.01 0.01 0.00 0.00 0.00 0.00 0.00 0.00 0.00 0.00 0.00 0.01 0.01 0.01 0.01 0.01 0.02 0.02 0.02 0.03 0.04 0.04 0.03 0.04 0.05 0.05 0.07 0.08 0.09 0.06 0.04 0.03 0.03 0.04 0.06 0.06
0.00 0.00 0.00 0.00 0.00 0.00 0.00 0.00 0.00 0.01 0.01 0.01 0.00 0.00 0.00 0.00 0.00 0.00 0.00 0.01 0.01 0.01 0.01 0.01 0.01 0.02 0.02 0.02 0.03 0.04 0.04 0.04 0.04 0.04 0.04 0.06 0.07 0.06 0.04 0.03 0.02 0.03 0.04 0.05
0.00 0.00 0.00 0.00 0.00 0.00 0.00 0.00 0.00 0.00 0.01 0.01 0.01 0.01 0.00 0.00 0.00 0.00 0.00 0.00 0.01 0.01 0.01 0.01 0.01 0.01 0.02 0.02 0.02 0.02 0.02 0.02 0.03 0.04 0.04 0.04 0.05 0.05 0.05 0.03 0.03 0.03 0.03 0.04
0.00 0.00 0.00 0.00 0.00 0.00 0.00 0.00 0.00 0.01 0.01 0.01 0.01 0.01 0.00 0.00 0.00 0.00 0.00 0.00 0.01 0.01 0.01 0.01 0.01 0.01 0.01 0.02 0.01 0.01 0.01 0.01 0.02 0.03 0.04 0.03 0.03 0.04 0.05 0.04 0.03 0.03 0.03 0.03
0.00 0.00 0.00 0.00 0.00 0.00 0.01 0.01 0.01 0.01 0.02 0.03 0.01 0.01 0.00 0.00 0.00 0.00 0.00 0.00 0.00 0.01 0.01 0.01 0.01 0.01 0.01 0.02 0.01 0.01 0.00 0.01 0.01 0.02 0.02 0.02 0.03 0.03 0.04 0.04 0.04 0.03 0.03 0.03
0.00 0.00 0.00 0.00 0.01 0.01 0.01 0.03 0.03 0.03 0.04 0.02 0.01 0.00 0.00 0.00 0.00 0.00 0.00 0.00 0.00 0.01 0.01 0.01 0.01 0.01 0.01 0.01 0.02 0.01 0.01 0.00 0.00 0.01 0.01 0.01 0.02 0.03 0.03 0.03 0.04 0.04 0.04 0.03
0.01 0.01 0.00 0.00 0.01 0.01 0.01 0.02 0.03 0.03 0.02 0.01 0.00 0.00 0.00 0.00 0.00 0.00 0.00 0.00 0.00 0.00 0.01 0.01 0.01 0.01 0.01 0.01 0.02 0.02 0.01 0.01 0.00 0.00 0.01 0.01 0.01 0.02 0.02 0.02 0.03 0.03 0.04 0.04
0.01 0.01 0.00 0.00 0.00 0.01 0.01 0.02 0.02 0.03 0.02 0.01 0.00 0.00 0.00 0.00 0.00 0.00 0.00 0.00 0.00 0.00 0.00 0.01 0.01 0.01 0.01 0.01 0.02 0.02 0.02 0.02 0.01 0.01 0.01 0.01 0.01 0.01 0.01 0.02 0.02 0.02 0.02 0.03
0.02 0.02 0.01 0.00 0.00 0.01 0.01 0.02 0.03 0.04 0.04 0.02 0.01 0.00 0.00 0.00 0.00 0.00 0.00 0.00 0.00 0.00 0.00 0.01 0.01 0.00 0.00 0.00 0.01 0.02 0.03 0.03 0.02 0.02 0.01 0.01 0.01 0.01 0.01 0.01 0.02 0.02 0.02 0.02
0.04 0.04 0.02 0.01 0.01 0.01 0.02 0.03 0.03 0.04 0.03 0.02 0.01 0.00 0.00 0.00 0.00 0.00 0.00 0.00 0.00 0.00 0.00 0.01 0.01 0.00 0.00 0.00 0.00 0.01 0.02 0.02 0.02 0.02 0.02 0.02 0.01 0.01 0.01 0.01 0.01 0.01 0.01 0.01
0.03 0.04 0.03 0.02 0.01 0.01 0.01 0.02 0.03 0.04 0.03 0.02 0.02 0.01 0.00 0.00 0.00 0.00 0.00 0.00 0.00 0.00 0.00 0.01 0.01 0.01 0.00 0.00 0.00 0.00 0.01 0.01 0.02 0.02 0.03 0.03 0.02 0.02 0.01 0.01 0.01 0.01 0.01 0.01
0.04 0.07 0.05 0.03 0.03 0.02 0.02 0.01 0.02 0.03 0.04 0.02 0.02 0.01 0.00 0.00 0.00 0.00 0.00 0.00 0.00 0.00 0.00 0.01 0.01 0.01 0.01 0.01 0.00 0.00 0.00 0.00 0.01 0.01 0.02 0.03 0.03 0.03 0.02 0.01 0.01 0.01 0.01 0.01
0.05 0.06 0.04 0.03 0.03 0.02 0.02 0.01 0.01 0.03 0.05 0.03 0.01 0.01 0.00 0.00 0.00 0.00 0.00 0.00 0.00 0.00 0.01 0.00 0.00 0.00 0.01 0.01 0.01 0.00 0.00 0.00 0.00 0.01 0.01 0.01 0.02 0.04 0.04 0.03 0.02 0.01 0.01 0.01
0.05 0.07 0.04 0.02 0.01 0.02 0.02 0.01 0.01 0.01 0.02 0.02 0.01 0.01 0.00 0.00 0.00 0.00 0.00 0.00 0.00 0.00 0.01 0.00 0.00 0.01 0.01 0.01 0.00 0.00 0.00 0.00 0.00 0.00 0.01 0.01 0.01 0.02 0.03 0.04 0.05 0.04 0.02 0.01
0.06 0.06 0.05 0.03 0.01 0.01 0.02 0.01 0.01 0.00 0.00 0.01 0.00 0.00 0.00 0.00 0.00 0.00 0.00 0.00 0.00 0.01 0.01 0.01 0.01 0.01 0.01 0.01 0.00 0.00 0.00 0.00 0.00 0.00 0.01 0.01 0.01 0.01 0.01 0.03 0.04 0.05 0.05 0.04
0.06 0.05 0.06 0.04 0.01 0.02 0.03 0.01 0.00 0.00 0.00 0.00 0.00 0.00 0.00 0.00 0.00 0.00 0.00 0.00 0.00 0.00 0.01 0.01 0.01 0.01 0.01 0.01 0.01 0.00 0.01 0.01 0.00 0.00 0.00 0.00 0.01 0.01 0.01 0.01 0.02 0.03 0.04 0.05
0.04 0.05 0.07 0.06 0.04 0.04 0.01 0.00 0.00 0.00 0.00 0.00 0.00 0.00 0.00 0.01 0.01 0.01 0.01 0.00 0.00 0.00 0.00 0.00 0.00 0.00 0.00 0.00 0.00 0.00 0.00 0.00 0.00 0.00 0.00 0.00 0.00 0.00 0.00 0.00 0.01 0.02 0.03 0.04
0.03 0.05 0.08 0.07 0.05 0.02 0.00 0.00 0.00 0.01 0.00 0.00 0.00 0.00 0.01 0.01 0.01 0.00 0.00 0.00 0.00 0.00 0.00 0.00 0.00 0.00 0.00 0.00 0.00 0.00 0.00 0.00 0.00 0.00 0.00 0.00 0.00 0.00 0.00 0.00 0.00 0.01 0.01 0.02
0.03 0.04 0.08 0.08 0.06 0.02 0.01 0.01 0.00 0.01 0.01 0.00 0.01 0.01 0.01 0.01 0.01 0.00 0.00 0.00 0.00 0.00 0.00 0.00 0.00 0.00 0.00 0.00 0.00 0.00 0.00 0.00 0.00 0.00 0.00 0.00 0.00 0.00 0.00 0.00 0.00 0.00 0.00 0.00
0.04 0.05 0.07 0.06 0.05 0.02 0.01 0.01 0.01 0.03 0.01 0.01 0.01 0.01 0.01 0.01 0.01 0.00 0.00 0.00 0.00 0.00 0.00 0.00 0.00 0.00 0.00 0.00 0.00 0.00 0.00 0.00 0.00 0.00 0.00 0.00 0.00 0.00 0.00 0.00 0.00 0.00 0.00 0.00
0.01 0.03 0.04 0.04 0.04 0.02 0.01 0.01 0.02 0.03 0.02 0.01 0.01 0.01 0.01 0.01 0.00 0.00 0.00 0.00 0.00 0.00 0.00 0.00 0.00 0.00 0.00 0.00 0.00 0.00 0.00 0.00 0.00 0.00 0.00 0.00 0.00 0.00 0.00 0.00 0.00 0.00 0.00 0.00
0.01 0.01 0.02 0.02 0.02 0.01 0.01 0.02 0.02 0.02 0.02 0.01 0.01 0.01 0.01 0.01 0.00 0.00 0.00 0.00 0.00 0.00 0.00 0.00 0.00 0.00 0.00 0.00 0.00 0.00 0.00 0.00 0.00 0.00 0.00 0.00 0.00 0.00 0.00 0.00 0.00 0.00 0.01 0.01
0.01 0.01 0.02 0.03 0.02 0.01 0.01 0.02 0.01 0.01 0.02 0.01 0.01 0.01 0.01 0.01 0.01 0.00 0.00 0.00 0.00 0.00 0.00 0.00 0.00 0.00 0.00 0.00 0.00 0.00 0.00 0.00 0.00 0.00 0.00 0.00 0.00 0.01 0.01 0.01 0.01 0.01 0.01 0.01
0.01 0.01 0.01 0.02 0.01 0.01 0.01 0.01 0.01 0.01 0.01 0.01 0.01 0.01 0.01 0.01 0.01 0.01 0.01 0.00 0.00 0.00 0.00 0.00 0.00 0.00 0.00 0.00 0.00 0.00 0.00 0.00 0.00 0.00 0.00 0.00 0.00 0.01 0.01 0.01 0.01 0.01 0.01 0.01
0.01 0.01 0.01 0.01 0.01 0.01 0.01 0.01 0.01 0.01 0.01 0.01 0.01 0.01 0.01 0.01 0.01 0.01 0.01 0.00 0.00 0.00 0.00 0.00 0.00 0.00 0.00 0.00 0.00 0.00 0.00 0.00 0.00 0.00 0.00 0.01 0.01 0.01 0.01 0.01 0.01 0.01 0.01 0.01
MSLP
1017.45 1017.38 1017.36 1017.44 1017.64 1018.00 1018.53 1019.21 1020.04 1020.95 1021.89 1022.82 1023.67 1024.43 1025.07 1025.59 1026.03 1026.41 1026.76 1027.11 1027.45 1027.80 1028.12 1028.37 1028.54 1028.58 1028.50 1028.28 1027.97 1027.59 1027.21 1026.87 1026.61 1026.48 1026.45 1026.54 1026.68 1026.85 1026.99 1027.06 1027.03 1026.88 1026.64 1026.31
1017.68 1017.62 1017.61 1017.68 1017.87 1018.19 1018.67 1019.29 1020.03 1020.85 1021.71 1022.57 1023.38 1024.12 1024.78 1025.37 1025.90 1026.39 1026.85 1027.31 1027.77 1028.20 1028.58 1028.88 1029.07 1029.14 1029.06 1028.86 1028.57 1028.22 1027.86 1027.55 1027.32 1027.20 1027.19 1027.27 1027.41 1027.57 1027.70 1027.76 1027.72 1027.57 1027.32 1026.98
1018.01 1017.98 1017.99 1018.07 1018.24 1018.52 1018.92 1019.43 1020.03 1020.71 1021.42 1022.15 1022.87 1023.57 1024.24 1024.89 1025.52 1026.14 1026.76 1027.36 1027.95 1028.48 1028.95 1029.30 1029.53 1029.62 1029.56 1029.38 1029.11 1028.79 1028.46 1028.18 1027.97 1027.87 1027.86 1027.93 1028.06 1028.21 1028.32 1028.37 1028.34 1028.19 1027.95 1027.63
1018.39 1018.41 1018.46 1018.56 1018.72 1018.95 1019.26 1019.62 1020.05 1020.53 1021.05 1021.61 1022.20 1022.83 1023.49 1024.19 1024.93 1025.69 1026.48 1027.25 1027.99 1028.65 1029.21 1029.63 1029.91 1030.03 1030.00 1029.85 1029.61 1029.33 1029.04 1028.79 1028.61 1028.51 1028.50 1028.56 1028.66 1028.78 1028.87 1028.91 1028.87 1028.75 1028.53 1028.24
1018.75 1018.83 1018.94 1019.07 1019.24 1019.42 1019.63 1019.84 1020.08 1020.34 1020.65 1021.01 1021.45 1021.98 1022.62 1023.37 1024.21 1025.12 1026.07 1027.02 1027.91 1028.71 1029.38 1029.88 1030.21 1030.38 1030.40 1030.29 1030.10 1029.87 1029.63 1029.42 1029.27 1029.17 1029.15 1029.17 1029.24 1029.32 1029.38 1029.40 1029.36 1029.25 1029.06 1028.81
1019.03 1019.18 1019.35 1019.54 1019.71 1019.86 1019.98 1020.05 1020.10 1020.16 1020.25 1020.41 1020.70 1021.14 1021.75 1022.54 1023.48 1024.53 1025.64 1026.75 1027.79 1028.72 1029.49 1030.08 1030.48 1030.70 1030.77 1030.73 1030.60 1030.43 1030.25 1030.09 1029.96 1029.87 1029.83 1029.82 1029.84 1029.86 1029.88 1029.87 1029.83 1029.73 1029.57 1029.37
1019.20 1019.42 1019.66 1019.90 1020.10 1020.23 1020.27 1020.23 1020.12 1019.99 1019.90 1019.90 1020.05 1020.41 1021.00 1021.83 1022.85 1024.02 1025.27 1026.52 1027.69 1028.73 1029.60 1030.26 1030.72 1031.01 1031.14 1031.17 1031.12 1031.02 1030.91 1030.80 1030.70 1030.62 1030.55 1030.51 1030.47 1030.44 1030.42 1030.37 1030.31 1030.22 1030.09 1029.93
1019.28 1019.56 1019.87 1020.16 1020.39 1020.51 1020.51 1020.37 1020.14 1019.87 1019.63 1019.51 1019.57 1019.88 1020.46 1021.32 1022.42 1023.69 1025.04 1026.40 1027.67 1028.79 1029.72 1030.44 1030.96 1031.30 1031.50 1031.60 1031.63 1031.61 1031.57 1031.51 1031.45 1031.38 1031.30 1031.22 1031.14 1031.07 1030.99 1030.91 1030.84 1030.75 1030.64 1030.51
1019.32 1019.66 1020.03 1020.37 1020.62 1020.74 1020.70 1020.50 1020.19 1019.82 1019.48 1019.28 1019.28 1019.57 1020.16 1021.06 1022.22 1023.56 1024.98 1026.41 1027.74 1028.91 1029.87 1030.63 1031.18 1031.57 1031.83 1031.99 1032.09 1032.15 1032.18 1032.19 1032.17 1032.11 1032.04 1031.94 1031.82 1031.70 1031.59 1031.49 1031.39 1031.30 1031.21 1031.10
1019.40 1019.80 1020.21 1020.58 1020.85 1020.96 1020.89 1020.65 1020.27 1019.84 1019.45 1019.20 1019.18 1019.46 1020.07 1021.01 1022.21 1023.59 1025.06 1026.52 1027.87 1029.06 1030.03 1030.80 1031.37 1031.79 1032.09 1032.31 1032.47 1032.60 1032.70 1032.77 1032.79 1032.76 1032.69 1032.59 1032.46 1032.32 1032.19 1032.07 1031.96 1031.87 1031.79 1031.70
1019.62 1020.06 1020.50 1020.89 1021.15 1021.24 1021.13 1020.83 1020.40 1019.93 1019.50 1019.23 1019.20 1019.50 1020.13 1021.09 1022.32 1023.73 1025.21 1026.66 1028.01 1029.18 1030.14 1030.90 1031.48 1031.92 1032.25 1032.51 1032.73 1032.93 1033.08 1033.20 1033.27 1033.28 1033.23 1033.14 1033.02 1032.88 1032.74 1032.62 1032.52 1032.44 1032.36 1032.28
1020.02 1020.49 1020.95 1021.32 1021.56 1021.60 1021.43 1021.07 1020.59 1020.06 1019.60 1019.31 1019.28 1019.58 1020.23 1021.20 1022.44 1023.84 1025.31 1026.74 1028.06 1029.21 1030.16 1030.91 1031.49 1031.94 1032.30 1032.61 1032.87 1033.11 1033.32 1033.49 1033.59 1033.64 1033.63 1033.56 1033.46 1033.35 1033.23 1033.13 1033.04 1032.97 1032.90 1032.82
1020.60 1021.09 1021.55 1021.89 1022.07 1022.04 1021.79 1021.36 1020.80 1020.21 1019.71 1019.40 1019.36 1019.65 1020.29 1021.26 1022.48 1023.86 1025.30 1026.70 1027.99 1029.11 1030.05 1030.79 1031.39 1031.86 1032.26 1032.60 1032.91 1033.20 1033.44 1033.65 1033.79 1033.87 1033.89 1033.86 1033.80 1033.72 1033.64 1033.57 1033.51 1033.46 1033.40 1033.33
1021.30 1021.81 1022.25 1022.54 1022.64 1022.52 1022.17 1021.64 1021.00 1020.35 1019.80 1019.45 1019.39 1019.66 1020.28 1021.22 1022.40 1023.74 1025.14 1026.51 1027.77 1028.88 1029.81 1030.57 1031.20 1031.71 1032.15 1032.54 1032.90 1033.22 1033.50 1033.73 1033.90 1034.01 1034.06 1034.07 1034.05 1034.02 1033.99 1033.96 1033.93 1033.91 1033.87 1033.81
1022.04 1022.54 1022.94 1023.17 1023.18 1022.95 1022.50 1021.88 1021.16 1020.45 1019.85 1019.47 1019.38 1019.62 1020.20 1021.10 1022.23 1023.52 1024.87 1026.20 1027.44 1028.54 1029.49 1030.29 1030.96 1031.54 1032.03 1032.48 1032.87 1033.23 1033.53 1033.79 1033.98 1034.11 1034.19 1034.23 1034.25 1034.27 1034.28 1034.30 1034.31 1034.32 1034.30 1034.25
1022.70 1023.18 1023.52 1023.66 1023.58 1023.26 1022.73 1022.03 1021.25 1020.50 1019.88 1019.48 1019.37 1019.58 1020.12 1020.97 1022.04 1023.27 1024.56 1025.85 1027.07 1028.17 1029.15 1030.00 1030.74 1031.38 1031.94 1032.45 1032.89 1033.28 1033.61 1033.87 1034.07 1034.21 1034.31 1034.38 1034.43 1034.49 1034.55 1034.61 1034.67 1034.70 1034.71 1034.67
1023.18 1023.61 1023.87 1023.94 1023.77 1023.38 1022.78 1022.05 1021.26 1020.52 1019.91 1019.53 1019.42 1019.62 1020.13 1020.93 1021.94 1023.09 1024.32 1025.56 1026.75 1027.86 1028.86 1029.76 1030.56 1031.27 1031.91 1032.47 1032.96 1033.38 1033.72 1033.99 1034.19 1034.33 1034.44 1034.52 1034.60 1034.69 1034.79 1034.89 1034.99 1035.06 1035.08 1035.06
1023.41 1023.76 1023.94 1023.93 1023.69 1023.26 1022.65 1021.94 1021.20 1020.52 1019.98 1019.66 1019.60 1019.82 1020.31 1021.07 1022.01 1023.09 1024.25 1025.42 1026.57 1027.66 1028.68 1029.61 1030.47 1031.24 1031.93 1032.55 1033.08 1033.52 1033.87 1034.13 1034.33 1034.47 1034.58 1034.67 1034.77 1034.88 1035.00 1035.14 1035.26 1035.35 1035.40 1035.40
1023.39 1023.64 1023.73 1023.63 1023.36 1022.92 1022.35 1021.72 1021.09 1020.53 1020.12 1019.91 1019.93 1020.20 1020.71 1021.43 1022.31 1023.31 1024.38 1025.47 1026.56 1027.62 1028.62 1029.57 1030.45 1031.27 1032.00 1032.65 1033.21 1033.66 1034.01 1034.28 1034.46 1034.59 1034.69 1034.79 1034.89 1035.01 1035.16 1035.31 1035.46 1035.57 1035.64 1035.65
1023.14 1023.28 1023.28 1023.13 1022.83 1022.42 1021.94 1021.43 1020.96 1020.58 1020.34 1020.28 1020.42 1020.76 1021.29 1021.99 1022.82 1023.74 1024.72 1025.72 1026.73 1027.73 1028.70 1029.63 1030.52 1031.34 1032.10 1032.76 1033.33 1033.78 1034.13 1034.38 1034.56 1034.67 1034.77 1034.85 1034.96 1035.09 1035.24 1035.41 1035.56 1035.69 1035.77 1035.78
1022.74 1022.77 1022.69 1022.50 1022.21 1021.86 1021.49 1021.14 1020.85 1020.67 1020.63 1020.74 1021.01 1021.45 1022.02 1022.71 1023.49 1024.33 1025.22 1026.13 1027.05 1027.98 1028.89 1029.79 1030.66 1031.47 1032.22 1032.88 1033.44 1033.88 1034.22 1034.45 1034.61 1034.71 1034.79 1034.87 1034.97 1035.09 1035.24 1035.40 1035.56 1035.68 1035.76 1035.78
1022.26 1022.20 1022.06 1021.85 1021.59 1021.32 1021.08 1020.89 1020.80 1020.82 1020.97 1021.25 1021.66 1022.18 1022.79 1023.48 1024.23 1025.01 1025.82 1026.64 1027.49 1028.34 1029.20 1030.05 1030.88 1031.67 1032.40 1033.04 1033.57 1034.00 1034.31 1034.52 1034.65 1034.73 1034.79 1034.86 1034.94 1035.05 1035.18 1035.33 1035.47 1035.58 1035.64 1035.65
1021.77 1021.65 1021.47 1021.27 1021.06 1020.88 1020.76 1020.73 1020.81 1021.01 1021.33 1021.76 1022.28 1022.88 1023.53 1024.23 1024.95 1025.69 1026.45 1027.22 1028.00 1028.81 1029.63 1030.44 1031.24 1032.00 1032.69 1033.30 1033.80 1034.19 1034.46 1034.64 1034.74 1034.80 1034.83 1034.86 1034.92 1035.00 1035.10 1035.22 1035.33 1035.41 1035.44 1035.42
1021.30 1021.16 1020.99 1020.81 1020.67 1020.58 1020.58 1020.69 1020.92 1021.25 1021.70 1022.23 1022.84 1023.50 1024.18 1024.89 1025.61 1026.34 1027.08 1027.83 1028.61 1029.40 1030.20 1031.00 1031.78 1032.51 1033.17 1033.73 1034.19 1034.53 1034.76 1034.89 1034.95 1034.97 1034.96 1034.96 1034.97 1035.01 1035.07 1035.14 1035.20 1035.23 1035.22 1035.16
1020.86 1020.74 1020.60 1020.49 1020.42 1020.43 1020.54 1020.76 1021.09 1021.53 1022.06 1022.66 1023.32 1024.02 1024.73 1025.46 1026.20 1026.95 1027.72 1028.50 1029.30 1030.12 1030.94 1031.75 1032.53 1033.24 1033.87 1034.40 1034.80 1035.09 1035.26 1035.33 1035.34 1035.30 1035.24 1035.18 1035.15 1035.14 1035.14 1035.15 1035.15 1035.13 1035.06 1034.95
1020.44 1020.36 1020.29 1020.26 1020.29 1020.40 1020.61 1020.92 1021.33 1021.83 1022.41 1023.05 1023.74 1024.46 1025.21 1025.97 1026.76 1027.56 1028.39 1029.24 1030.11 1031.00 1031.87 1032.72 1033.51 1034.21 1034.82 1035.30 1035.64 1035.86 1035.96 1035.97 1035.90 1035.80 1035.68 1035.57 1035.48 1035.41 1035.35 1035.30 1035.24 1035.15 1035.02 1034.84
Thickness
5543 5545 5546 5546 5544 5547 5545 5544 5546 5547 5542 5541 5549 5555 5557 5553 5551 5552 5553 5553 5552 5550 5547 5544 5543 5542 5544 5545 5545 5546 5546 5547 5547 5548 5549 5548 5548 5547 5547 5546 5545 5545 5546 5548
5537 5537 5537 5533 5532 5531 5532 5534 5537 5536 5530 5532 5539 5547 5550 5548 5547 5549 5549 5548 5545 5543 5539 5536 5534 5534 5534 5535 5535 5536 5537 5537 5538 5539 5539 5539 5538 5538 5537 5536 5535 5535 5536 5537
5533 5530 5525 5523 5523 5523 5524 5526 5528 5525 5523 5522 5525 5545 5549 5547 5542 5540 5540 5540 5538 5535 5532 5529 5526 5525 5525 5525 5525 5526 5527 5528 5528 5529 5529 5529 5528 5528 5527 5526 5525 5525 5525 5527
5519 5518 5514 5515 5515 5515 5519 5518 5514 5512 5513 5523 5518 5539 5553 5545 5539 5537 5536 5534 5533 5528 5524 5521 5518 5517 5516 5515 5515 5516 5517 5517 5518 5519 5520 5520 5521 5520 5517 5516 5515 5514 5515 5516
5510 5505 5505 5507 5508 5503 5507 5504 5502 5502 5503 5505 5510 5515 5546 5535 5536 5538 5533 5527 5523 5519 5515 5512 5509 5507 5506 5505 5505 5506 5507 5507 5507 5508 5509 5509 5509 5509 5507 5506 5505 5505 5505 5506
5496 5492 5492 5496 5494 5492 5490 5491 5491 5490 5492 5496 5509 5509 5536 5536 5535 5534 5527 5519 5512 5506 5504 5501 5498 5496 5496 5496 5496 5496 5497 5497 5497 5498 5498 5498 5498 5497 5497 5496 5495 5495 5495 5495
5486 5486 5482 5481 5484 5482 5482 5487 5492 5492 5492 5505 5497 5497 5523 5526 5520 5519 5517 5510 5504 5498 5495 5492 5489 5487 5487 5486 5486 5486 5487 5487 5486 5486 5487 5487 5487 5486 5486 5485 5485 5484 5484 5485
5477 5484 5477 5473 5477 5477 5475 5480 5486 5491 5498 5505 5481 5494 5516 5505 5501 5500 5499 5497 5491 5489 5486 5483 5480 5478 5477 5476 5476 5475 5477 5477 5476 5476 5476 5476 5475 5475 5474 5474 5474 5474 5474 5474
5471 5474 5463 5460 5460 5465 5465 5467 5469 5467 5453 5465 5493 5495 5496 5492 5490 5489 5487 5484 5482 5479 5476 5473 5470 5468 5466 5465 5465 5464 5466 5465 5465 5465 5465 5464 5464 5463 5463 5462 5462 5462 5462 5463
5455 5453 5454 5449 5449 5449 5454 5455 5450 5455 5464 5476 5488 5490 5503 5494 5489 5484 5480 5476 5473 5469 5466 5462 5460 5457 5456 5455 5454 5454 5454 5453 5452 5452 5452 5452 5451 5451 5451 5451 5451 5451 5451 5451
5439 5439 5441 5439 5442 5448 5439 5437 5442 5447 5451 5466 5477 5495 5493 5488 5484 5478 5473 5467 5464 5459 5455 5451 5449 5446 5445 5444 5443 5442 5441 5441 5440 5440 5439 5439 5439 5439 5439 5439 5439 5439 5439 5439
5430 5430 5434 5437 5432 5429 5434 5440 5439 5442 5439 5442 5458 5480 5471 5469 5468 5464 5461 5455 5450 5446 5443 5440 5437 5435 5433 5432 5431 5430 5429 5429 5428 5427 5426 5426 5426 5426 5426 5426 5426 5426 5427 5427
5418 5417 5426 5433 5424 5414 5417 5424 5427 5428 5431 5434 5445 5469 5455 5451 5451 5449 5446 5442 5437 5433 5430 5428 5426 5423 5422 5421 5420 5419 5418 5417 5415 5414 5414 5414 5413 5413 5413 5413 5413 5413 5413 5414
5415 5410 5418 5434 5438 5423 5413 5413 5413 5414 5422 5429 5439 5458 5455 5448 5443 5439 5433 5429 5426 5423 5420 5418 5416 5414 5411 5409 5408 5407 5406 5404 5402 5401 5401 5401 5400 5400 5399 5399 5399 5399 5400 5400
5403 5402 5397 5404 5407 5406 5408 5411 5409 5408 5420 5423 5438 5441 5450 5442 5433 5429 5423 5418 5414 5412 5410 5408 5406 5404 5401 5399 5397 5395 5393 5391 5390 5389 5389 5388 5387 5386 5386 5385 5385 5385 5386 5386
5392 5390 5382 5384 5391 5388 5391 5405 5407 5406 5411 5414 5418 5426 5431 5422 5417 5414 5411 5406 5403 5402 5400 5398 5395 5393 5391 5390 5387 5385 5382 5380 5378 5377 5376 5375 5374 5373 5372 5371 5371 5371 5371 5372
5379 5376 5382 5390 5376 5374 5391 5411 5408 5406 5408 5410 5415 5426 5417 5408 5405 5404 5401 5397 5395 5393 5390 5388 5386 5383 5381 5379 5377 5375 5372 5368 5366 5365 5363 5361 5360 5359 5358 5357 5357 5356 5357 5357
5369 5368 5370 5374 5366 5382 5419 5408 5406 5403 5403 5401 5403 5405 5401 5397 5392 5389 5387 5385 5384 5382 5379 5377 5375 5372 5370 5368 5365 5363 5359 5356 5354 5353 5351 5349 5347 5346 5344 5344 5343 5343 5343 5343
5366 5363 5363 5364 5373 5387 5399 5393 5388 5389 5397 5392 5387 5386 5384 5376 5373 5379 5373 5370 5370 5369 5366 5364 5362 5360 5358 5356 5353 5350 5347 5344 5342 5341 5339 5337 5334 5333 5332 5331 5331 5330 5329 5330
5352 5354 5358 5356 5365 5377 5403 5379 5372 5375 5383 5379 5372 5371 5368 5363 5376 5381 5366 5359 5356 5353 5351 5349 5347 5345 5343 5342 5339 5337 5335 5333 5331 5329 5327 5324 5322 5321 5320 5319 5317 5316 5315 5316
5344 5345 5350 5355 5361 5375 5373 5357 5359 5369 5381 5365 5359 5357 5354 5354 5359 5354 5346 5344 5341 5339 5337 5335 5333 5331 5329 5327 5325 5324 5323 5321 5319 5316 5313 5312 5310 5308 5307 5306 5304 5303 5302 5301
5352 5347 5342 5344 5348 5368 5349 5344 5354 5361 5350 5344 5342 5340 5339 5337 5334 5332 5330 5328 5326 5324 5322 5321 5319 5317 5315 5312 5311 5311 5310 5309 5305 5302 5301 5299 5297 5296 5294 5293 5291 5289 5288 5287
5344 5350 5352 5349 5357 5347 5333 5335 5334 5331 5331 5328 5327 5323 5321 5319 5318 5317 5316 5314 5312 5311 5308 5306 5305 5303 5301 5298 5297 5298 5298 5294 5291 5289 5287 5286 5284 5283 5281 5280 5279 5277 5276 5275
5326 5320 5327 5326 5332 5327 5320 5318 5315 5313 5312 5311 5308 5306 5304 5303 5303 5301 5301 5300 5298 5296 5294 5291 5289 5288 5287 5285 5283 5284 5282 5279 5277 5276 5275 5273 5272 5271 5269 5267 5267 5266 5264 5264
5322 5310 5313 5315 5317 5312 5312 5308 5303 5299 5296 5293 5291 5290 5289 5289 5289 5287 5287 5285 5284 5282 5279 5276 5275 5274 5273 5271 5269 5268 5266 5265 5263 5263 5262 5260 5259 5258 5257 5256 5255 5254 5254 5252
5305 5304 5312 5323 5316 5311 5310 5299 5290 5286 5283 5281 5278 5276 5275 5274 5274 5273 5272 5271 5269 5267 5265 5262 5261 5260 5259 5257 5256 5254 5252 5251 5250 5250 5249 5248 5247 5246 5245 5244 5243 5242 5241 5241